Laramie, WY

7:46 AM MST on February 19, 2017 (GMT -0700)
Laramie Regional

Weather History for KLAR - January, 2012

Change the Weather History Date:

Wednesday, January 4, 2012

  Actual Average Record
Temperature  
Mean Temperature 34 °F 22 °F  
Max Temperature 50 °F 33 °F 51 °F (1987)
Min Temperature 17 °F 10 °F -36 °F (1972)
Degree Days  
Heating Degree Days 31 43  
Month to date heating degree days 141 173  
Since 1 July heating degree days 3767 3846  
Cooling Degree Days 0 0  
Month to date cooling degree days 0 0  
Year to date cooling degree days 0 0  
Moisture  
Dew Point 13 °F    
Average Humidity 49    
Maximum Humidity 74    
Minimum Humidity 23    
Precipitation  
Precipitation 0.00 in 0.00 in 0.63 in (1949)
Month to date precipitation 0.00 0.03  
Year to date precipitation 0.00 0.03  
Sea Level Pressure  
Sea Level Pressure 30.41 in    
Wind  
Wind Speed 10 mph (SW)    
Max Wind Speed 21 mph    
Max Gust Speed 25 mph    
Visibility 10 miles    
Events      
T = Trace of Precipitation, MM = Missing Value Source: NWS Daily Summary

Daily Weather History Graph

Daily Weather History Graph

Search for Another Location

Airport or City:

Trip Planner

Search our weather history database for the weather conditions in past years. The results will help you decide how hot, cold, wet, or windy it might be!

Date:

Astronomy

Jan. 04, 2012 Rise Set
Actual Time 7:28 AM MST 4:46 PM MST
Civil Twilight 6:57 AM MST 5:17 PM MST
Nautical Twilight 6:23 AM MST 5:52 PM MST
Astronomical Twilight 5:49 AM MST 6:25 PM MST
Moon 1:11 PM MST (1/4) 3:19 AM MST (1/4)
Length of Visible Light 10h 19m
Length of Day
9h 17m
Waxing Gibbous, 81% of the Moon is Illuminated
Jan 4
Waxing Gibbous
Jan 9
Full
Jan 16
Last Quarter
Jan 23
New
Jan 30
First Quarter

Hourly Weather History & Observations

Time (MST) Temp. Windchill Dew Point Humidity Pressure Visibility Wind Dir Wind Speed Gust Speed Precip Events Conditions
12:53 AM 21.0 °F 11.4 °F 10.9 °F 65% 30.33 in 10.0 mi SSW 8.1 mph - N/A   Clear
1:53 AM 21.0 °F 14.6 °F 10.9 °F 65% 30.37 in 10.0 mi South 4.6 mph - N/A   Clear
2:53 AM 23.0 °F 12.4 °F 10.9 °F 60% 30.38 in 10.0 mi WSW 10.4 mph - N/A   Clear
3:53 AM 28.0 °F 16.1 °F 12.9 °F 53% 30.37 in 10.0 mi SW 16.1 mph - N/A   Clear
4:53 AM 24.1 °F 14.4 °F 10.9 °F 57% 30.43 in 10.0 mi SSW 9.2 mph - N/A   Clear
5:53 AM 24.1 °F 16.0 °F 10.0 °F 55% 30.46 in 10.0 mi WSW 6.9 mph - N/A   Clear
6:53 AM 24.1 °F 16.0 °F 10.0 °F 55% 30.48 in 10.0 mi SW 6.9 mph - N/A   Clear
7:53 AM 28.0 °F 18.1 °F 10.0 °F 47% 30.48 in 10.0 mi WSW 11.5 mph - N/A   Clear
8:53 AM 33.1 °F 23.0 °F 10.9 °F 40% 30.45 in 10.0 mi SSW 15.0 mph - N/A   Clear
9:53 AM 39.0 °F 34.8 °F 12.9 °F 34% 30.43 in 10.0 mi SW 5.8 mph - N/A   Clear
10:53 AM 39.0 °F 36.8 °F 12.9 °F 34% 30.43 in 10.0 mi WNW 3.5 mph - N/A   Clear
11:53 AM 45.0 °F 40.6 °F 12.9 °F 27% 30.43 in 10.0 mi West 8.1 mph - N/A   Clear
12:53 PM 48.0 °F - 12.9 °F 24% 30.37 in 10.0 mi WSW 13.8 mph - N/A   Clear
1:53 PM 48.9 °F - 12.0 °F 23% 30.34 in 10.0 mi SW 17.3 mph - N/A   Clear
2:53 PM 46.0 °F 39.6 °F 14.0 °F 28% 30.35 in 10.0 mi SW 15.0 mph - N/A   Clear
3:53 PM 41.0 °F 35.8 °F 18.0 °F 40% 30.36 in 10.0 mi ENE 8.1 mph - N/A   Clear
4:53 PM 35.1 °F 27.9 °F 18.0 °F 50% 30.44 in 10.0 mi East 9.2 mph - N/A   Clear
5:53 PM 33.1 °F 24.4 °F 17.1 °F 52% 30.46 in 10.0 mi SSW 11.5 mph - N/A   Clear
6:53 PM 33.1 °F 23.9 °F 17.1 °F 52% 30.45 in 10.0 mi SW 12.7 mph - N/A   Clear
7:53 PM 28.4 °F 23.3 °F 15.8 °F 59% 30.41 in 10.0 mi SW 4.6 mph - N/A   Clear
8:53 PM 28.9 °F 20.4 °F 15.1 °F 56% 30.43 in 10.0 mi South 9.2 mph - N/A   Clear
9:53 PM 28.0 °F 17.5 °F 15.1 °F 58% 30.39 in 10.0 mi SSW 12.7 mph - N/A   Clear
10:53 PM 28.9 °F 22.8 °F 15.1 °F 56% 30.38 in 10.0 mi SSW 5.8 mph - N/A   Clear
11:53 PM 30.0 °F 20.0 °F 14.0 °F 51% 30.32 in 10.0 mi South 12.7 mph - N/A   Clear